Duluth, MN

7:46 PM CST on February 20, 2018 (GMT -0600)
Duluth International

Weather History for KDLH - October, 2014

Change the Weather History Date:

Monday, October 27, 2014

  Actual Average Record
Temperature  
Mean Temperature 47 °F 39 °F  
Max Temperature 52 °F 46 °F 70 °F (1966)
Min Temperature 42 °F 31 °F 6 °F (1917)
Degree Days  
Heating Degree Days 18 26  
Month to date heating degree days 507 568  
Since 1 July heating degree days 811 1015  
Cooling Degree Days 0 0  
Month to date cooling degree days 0 0  
Year to date cooling degree days 179 204  
Moisture  
Dew Point 38 °F    
Average Humidity 74    
Maximum Humidity 89    
Minimum Humidity 59    
Precipitation  
Precipitation 0.07 in 0.08 in 2.49 in (1971)
Month to date precipitation 1.72 2.55  
Year to date precipitation 28.31 27.36  
Snow  
Snow 0.00 in 0.10 in 4.30 in (2010)
Month to date snowfall T 1.7  
Since 1 July snowfall T 1.8  
Since 1 September snowfall T 1.8  
Snow Depth 0.00 in    
Sea Level Pressure  
Sea Level Pressure 29.64 in    
Wind  
Wind Speed 7 mph (ESE)    
Max Wind Speed 15 mph    
Max Gust Speed 19 mph    
Visibility 10 miles    
Events Rain    
T = Trace of Precipitation, MM = Missing Value Source: NWS Daily Summary

Daily Weather History Graph

Daily Weather History Graph

Search for Another Location

Airport or City:

Trip Planner

Search our weather history database for the weather conditions in past years. The results will help you decide how hot, cold, wet, or windy it might be!

Date:

Astronomy

Oct. 27, 2014 Rise Set
Actual Time 7:43 AM CDT 6:00 PM CDT
Civil Twilight 7:12 AM CDT 6:32 PM CDT
Nautical Twilight 6:36 AM CDT 7:07 PM CDT
Astronomical Twilight 6:01 AM CDT 7:42 PM CDT
Moon 11:27 AM CDT (10/27) 8:59 PM CDT (10/27)
Length of Visible Light 11h 19m
Length of Day
10h 16m
Waxing Crescent, 15% of the Moon is Illuminated
Oct 27
Waxing Crescent
Oct 30
First Quarter
Nov 6
Full
Nov 14
Last Quarter
Nov 22
New

Hourly Weather History & Observations

Time (CDT) Temp. Windchill Dew Point Humidity Pressure Visibility Wind Dir Wind Speed Gust Speed Precip Events Conditions
12:55 AM 46.0 °F 41.4 °F 34.0 °F 63% 29.67 in 10.0 mi ESE 9.2 mph - N/A   Clear
1:55 AM 45.0 °F 39.7 °F 34.0 °F 65% 29.66 in 10.0 mi East 10.4 mph - N/A   Scattered Clouds
2:55 AM 45.0 °F 39.7 °F 35.1 °F 68% 29.65 in 10.0 mi East 10.4 mph - N/A   Clear
3:55 AM 44.1 °F 37.7 °F 36.0 °F 73% 29.64 in 10.0 mi East 12.7 mph - N/A   Clear
4:55 AM 44.1 °F 40.1 °F 36.0 °F 73% 29.65 in 10.0 mi East 6.9 mph - N/A   Clear
5:55 AM 44.1 °F 38.1 °F 36.0 °F 73% 29.64 in 10.0 mi East 11.5 mph - N/A   Clear
6:55 AM 43.0 °F 38.8 °F 36.0 °F 76% 29.65 in 10.0 mi East 6.9 mph - N/A   Partly Cloudy
7:55 AM 42.1 °F 37.7 °F 37.0 °F 82% 29.64 in 10.0 mi East 6.9 mph - N/A   Partly Cloudy
8:55 AM 44.1 °F 39.5 °F 37.9 °F 79% 29.66 in 10.0 mi East 8.1 mph - N/A   Partly Cloudy
9:55 AM 46.4 °F 41.5 °F 37.4 °F 71% 29.61 in 10.0 mi East 10.4 mph - N/A   Partly Cloudy
10:55 AM 48.9 °F - 37.9 °F 66% 29.62 in 10.0 mi ESE 9.2 mph - N/A   Scattered Clouds
11:55 AM 52.0 °F - 37.9 °F 59% 29.62 in 10.0 mi SE 8.1 mph - N/A   Scattered Clouds
12:55 PM 51.1 °F - 37.9 °F 61% 29.64 in 10.0 mi Calm Calm - N/A   Partly Cloudy
1:55 PM 52.0 °F - 39.0 °F 61% 29.62 in 10.0 mi SE 4.6 mph - N/A   Scattered Clouds
2:55 PM 50.0 °F - 39.9 °F 68% 29.58 in 10.0 mi ESE 11.5 mph - N/A   Scattered Clouds
3:55 PM 48.0 °F - 39.0 °F 71% 29.61 in 10.0 mi ESE 12.7 mph - N/A   Scattered Clouds
4:33 PM 48.0 °F - 39.0 °F 71% 29.58 in 10.0 mi East 6.9 mph - N/A   Scattered Clouds
4:55 PM 48.0 °F - 37.9 °F 68% 29.63 in 10.0 mi Calm Calm - N/A   Scattered Clouds
5:55 PM 46.9 °F - 37.9 °F 71% 29.65 in 10.0 mi ESE 4.6 mph - N/A   Scattered Clouds
6:55 PM 46.0 °F 43.9 °F 37.9 °F 73% 29.66 in 10.0 mi ESE 4.6 mph - N/A   Scattered Clouds
7:55 PM 46.0 °F - 39.0 °F 76% 29.66 in 10.0 mi Calm Calm - N/A   Overcast
8:55 PM 46.0 °F - 39.9 °F 79% 29.65 in 10.0 mi Calm Calm - 0.00 in Rain Light Rain
9:55 PM 45.0 °F 40.6 °F 39.9 °F 82% 29.61 in 10.0 mi East 8.1 mph - 0.00 in   Overcast
10:55 PM 45.0 °F 43.5 °F 41.0 °F 86% 29.63 in 10.0 mi SW 3.5 mph - N/A   Overcast
11:03 PM 45.0 °F 42.6 °F 41.0 °F 86% 29.60 in 10.0 mi SW 4.6 mph - N/A   Overcast
11:55 PM 45.0 °F 41.8 °F 41.0 °F 86% 29.64 in 4.0 mi SW 5.8 mph - 0.01 in Rain Light Rain